M I D A S
Marine Information and Data Acquisition System
Tripno 955 of the Zeeleeuw from 2005-08-30 05:10:28 to 2005-08-30 14:19:17
Back to CruiseResearch ActivitiesStationsMapUnderway DataData graphs

EquipmentUnitsComment
TimeDGPSUTC
LatitudeDGPSDM.mWGS84
LongitudeDGPSDM.mWGS84
TemperatureSBE03/SBE38deg celciusITS90
ConductivitySBE21S/mITS90
SalinitySBE21 Practical Salinity Units
ChlorophylAChelsea fluorimeterg/lCalibrated in Aceton
Missing or incorrect values are displayed as -999
Sea surface data collected by the RV Zeeleeuw from 2005-08-30 04:52:01 to 2005-08-30 14:26:24
Time Latitude Longitude Temperature Conductivity Salinity ChlorophylA
2005-08-30 04:53:07 51°13.615 2°56.023 -999 0.068168 0.338835 0.499708
2005-08-30 04:54:06 51°13.648 2°55.929 -999 0.068065 0.338319 0.465999
2005-08-30 04:55:06 51°13.695 2°55.834 -999 0.068065 0.338346 0.499708
2005-08-30 04:56:06 51°13.755 2°55.734 -999 0.068065 0.338372 0.499708
2005-08-30 04:57:07 51°13.83 2°55.652 -999 0.068065 0.338398 0.499708
2005-08-30 04:58:06 51°13.907 2°55.638 -999 0.068065 0.338435 0.499708
2005-08-30 04:59:06 51°13.935 2°55.64 -999 0.068065 0.338435 0.499708
2005-08-30 05:00:06 51°13.971 2°55.542 -999 0.068065 0.338519 0.499708
2005-08-30 05:01:06 51°14.101 2°55.437 -999 0.068065 0.338529 0.499708
2005-08-30 05:02:06 51°14.247 2°55.272 -999 0.068065 0.338556 0.499708
2005-08-30 05:03:06 51°14.376 2°55.037 -999 0.068065 0.338608 0.465999
2005-08-30 05:04:06 51°14.458 2°54.708 -999 0.068065 0.338634 0.499708
2005-08-30 05:05:06 51°14.544 2°54.367 -999 0.068065 0.338676 0.499708
2005-08-30 05:06:06 51°14.633 2°54.025 -999 0.068065 0.338724 0.499708
2005-08-30 05:07:06 51°14.711 2°53.683 -999 0.068065 0.338766 0.465999
2005-08-30 05:08:06 51°14.727 2°53.314 -999 0.068065 0.338803 0.499708
2005-08-30 05:09:06 51°14.74 2°52.945 -999 0.068065 0.33885 0.465999
2005-08-30 05:10:06 51°14.749 2°52.571 -999 0.068065 0.338897 0.499708
2005-08-30 05:11:06 51°14.76 2°52.194 -999 0.067962 0.338418 0.499708
2005-08-30 05:12:06 51°14.771 2°51.81 -999 0.067962 0.33846 0.465999
2005-08-30 05:13:06 51°14.784 2°51.426 -999 0.067962 0.338513 0.499708
2005-08-30 05:14:06 51°14.797 2°51.041 -999 0.067962 0.338555 0.465999
2005-08-30 05:15:06 51°14.809 2°50.652 -999 0.067962 0.338591 0.499708
2005-08-30 05:16:06 51°14.822 2°50.264 -999 0.067962 0.338639 0.465999
2005-08-30 05:17:06 51°14.83 2°49.876 -999 0.067962 0.338676 0.465999
2005-08-30 05:18:06 51°14.841 2°49.484 -999 0.067962 0.338728 0.465999
2005-08-30 05:19:06 51°14.854 2°49.097 -999 0.067962 0.338771 0.465999
2005-08-30 05:20:05 51°14.867 2°48.713 -999 0.067962 0.338818 0.465999
2005-08-30 05:21:06 51°14.88 2°48.323 -999 0.067962 0.33886 0.465999
2005-08-30 05:22:06 51°14.892 2°47.936 -999 0.067859 0.33838 0.465999
2005-08-30 05:23:06 51°14.905 2°47.547 -999 0.067859 0.338422 0.465999
2005-08-30 05:24:06 51°14.92 2°47.166 -999 0.067859 0.33847 0.465999
2005-08-30 05:25:06 51°14.934 2°46.787 -999 0.067859 0.338512 0.465999
2005-08-30 05:26:06 51°14.947 2°46.407 -999 0.067859 0.338554 0.465999
2005-08-30 05:27:06 51°14.964 2°46.02 -999 0.067859 0.338601 0.465999
2005-08-30 05:28:05 51°14.978 2°45.641 -999 0.067859 0.338649 0.465999
2005-08-30 05:29:06 51°14.991 2°45.251 -999 0.067859 0.338696 0.465999
2005-08-30 05:30:06 51°15.006 2°44.863 -999 0.067859 0.338739 0.465999
2005-08-30 05:31:06 51°15.019 2°44.475 -999 0.067859 0.338786 0.465999
2005-08-30 05:32:06 51°15.033 2°44.086 -999 0.067859 0.338828 0.465999
2005-08-30 05:33:06 51°15.047 2°43.698 -999 0.067757 0.338342 0.465999
2005-08-30 05:34:06 51°15.06 2°43.311 -999 0.067757 0.338379 0.465999
2005-08-30 05:35:06 51°15.073 2°42.922 -999 0.067757 0.338427 0.465999
2005-08-30 05:36:06 51°15.085 2°42.54 -999 0.067757 0.338469 0.465999
2005-08-30 05:37:06 51°15.114 2°42.158 -999 0.067757 0.338511 0.465999
2005-08-30 05:38:06 51°15.148 2°41.789 -999 0.067757 0.338554 0.465999
2005-08-30 05:39:06 51°15.184 2°41.424 -999 0.067757 0.338585 0.465999
2005-08-30 05:40:06 51°15.221 2°41.06 -999 0.067757 0.338622 0.465999
2005-08-30 05:41:06 51°15.272 2°40.703 -999 0.067757 0.338665 0.465999
2005-08-30 05:42:05 51°15.358 2°40.565 -999 0.067757 0.338718 0.465999
2005-08-30 05:43:06 51°15.405 2°40.601 -999 0.067757 0.33876 0.465999
2005-08-30 05:44:06 51°15.425 2°40.655 -999 0.067757 0.338792 0.465999
2005-08-30 05:45:06 51°15.439 2°40.715 -999 0.067757 0.338871 0.465999
2005-08-30 05:46:06 51°15.439 2°40.735 -999 0.067757 0.338876 0.465999
2005-08-30 05:47:06 51°15.434 2°40.727 -999 0.067757 0.338914 0.465999
2005-08-30 05:48:06 51°15.428 2°40.721 -999 0.067654 0.338416 0.465999
2005-08-30 05:49:06 51°15.43 2°40.738 -999 0.067654 0.338464 0.465999
2005-08-30 05:50:06 51°15.444 2°40.749 -999 0.067654 0.338506 0.465999
2005-08-30 05:51:05 51°15.459 2°40.757 -999 0.067654 0.338559 0.465999
2005-08-30 05:52:06 51°15.464 2°40.758 -999 0.067654 0.338607 0.432289
2005-08-30 05:53:06 51°15.458 2°40.738 -999 0.067654 0.338649 0.465999
2005-08-30 05:54:06 51°15.452 2°40.719 -999 0.067654 0.338697 0.465999
2005-08-30 05:55:06 51°15.445 2°40.699 -999 0.067654 0.338739 0.465999
2005-08-30 05:56:06 51°15.44 2°40.68 -999 0.067654 0.338782 0.465999
2005-08-30 05:57:06 51°15.435 2°40.659 -999 0.067654 0.338824 0.432289
2005-08-30 05:58:06 51°15.43 2°40.639 -999 0.067654 0.338861 0.432289
2005-08-30 05:59:06 51°15.427 2°40.62 -999 0.067654 0.338898 0.465999
2005-08-30 06:00:07 51°15.403 2°40.588 -999 0.067654 0.338936 0.465999
2005-08-30 06:01:06 51°15.388 2°40.564 -999 0.067654 0.338951 0.465999
2005-08-30 06:02:06 51°15.376 2°40.532 -999 0.067654 0.338973 0.465999
2005-08-30 06:03:06 51°15.362 2°40.496 -999 0.067654 0.33901 0.432289
2005-08-30 06:04:06 51°15.345 2°40.461 -999 0.067654 0.339031 0.432289
2005-08-30 06:05:06 51°15.339 2°40.445 -999 0.067654 0.339063 0.432289
2005-08-30 06:06:06 51°15.343 2°40.464 -999 0.067654 0.339106 0.432289
2005-08-30 06:07:06 51°15.345 2°40.473 -999 0.067654 0.339132 0.465999
2005-08-30 06:08:06 51°15.345 2°40.483 -999 0.067654 0.339159 0.465999
2005-08-30 06:09:06 51°15.359 2°40.547 -999 0.067654 0.339196 0.465999
2005-08-30 06:10:06 51°15.381 2°40.632 -999 0.067654 0.339233 0.465999
2005-08-30 06:11:06 51°15.388 2°40.688 -999 0.067654 0.339276 0.432289
2005-08-30 06:12:06 51°15.393 2°40.735 -999 0.067654 0.339324 0.432289
2005-08-30 06:13:06 51°15.418 2°40.759 -999 0.067654 0.339356 0.465999
2005-08-30 06:14:06 51°15.442 2°40.764 -999 0.067654 0.339398 0.432289
2005-08-30 06:15:06 51°15.458 2°40.766 -999 0.067654 0.339436 0.432289
2005-08-30 06:16:06 51°15.457 2°40.753 -999 0.067654 0.339457 0.432289
2005-08-30 06:17:06 51°15.451 2°40.733 -999 0.067654 0.339489 0.465999
2005-08-30 06:18:06 51°15.443 2°40.71 -999 0.067654 0.339516 0.432289
2005-08-30 06:19:06 51°15.446 2°40.698 -999 0.067654 0.339542 0.432289
2005-08-30 06:20:06 51°15.455 2°40.704 -999 0.067654 0.339558 0.432289
2005-08-30 06:21:06 51°15.465 2°40.73 -999 0.067654 0.339574 0.432289
2005-08-30 06:22:06 51°15.472 2°40.757 -999 0.067654 0.339596 0.432289
2005-08-30 06:23:06 51°15.472 2°40.775 -999 0.067654 0.339628 0.432289
2005-08-30 06:24:06 51°15.467 2°40.77 -999 0.067654 0.339665 0.432289
2005-08-30 06:25:06 51°15.461 2°40.761 -999 0.067654 0.339708 0.432289
2005-08-30 06:26:06 51°15.454 2°40.749 -999 0.067654 0.33975 0.432289
2005-08-30 06:27:06 51°15.448 2°40.736 -999 0.067654 0.339788 0.432289
2005-08-30 06:28:06 51°15.441 2°40.721 -999 0.067654 0.339836 0.432289
2005-08-30 06:29:06 51°15.435 2°40.703 -999 0.067654 0.339879 0.432289
2005-08-30 06:30:06 51°15.429 2°40.684 -999 0.067654 0.339921 0.432289
2005-08-30 06:31:06 51°15.424 2°40.663 -999 0.067654 0.339964 0.432289
2005-08-30 06:32:06 51°15.417 2°40.642 -999 0.067654 0.340012 0.432289
2005-08-30 06:33:06 51°15.41 2°40.622 -999 0.067654 0.340045 0.432289
2005-08-30 06:34:06 51°15.403 2°40.601 -999 0.067551 0.339545 0.432289
2005-08-30 06:35:06 51°15.396 2°40.582 -999 0.067551 0.339566 0.432289
2005-08-30 06:36:06 51°15.394 2°40.563 -999 0.067551 0.339593 0.432289
2005-08-30 06:37:06 51°15.416 2°40.577 -999 0.067551 0.339641 0.432289
2005-08-30 06:38:06 51°15.426 2°40.611 -999 0.067551 0.339668 0.432289
2005-08-30 06:39:06 51°15.429 2°40.649 -999 0.067551 0.339684 0.432289
2005-08-30 06:40:06 51°15.432 2°40.691 -999 0.067551 0.33971 0.432289
2005-08-30 06:41:06 51°15.443 2°40.728 -999 0.067551 0.339737 0.432289
2005-08-30 06:42:06 51°15.455 2°40.763 -999 0.067551 0.339769 0.432289
2005-08-30 06:43:06 51°15.463 2°40.787 -999 0.067551 0.339828 0.432289
2005-08-30 06:44:06 51°15.469 2°40.791 -999 0.067551 0.33986 0.432289
2005-08-30 06:45:06 51°15.473 2°40.787 -999 0.067551 0.339903 0.432289
2005-08-30 06:46:06 51°15.471 2°40.776 -999 0.067551 0.339935 0.432289
2005-08-30 06:47:06 51°15.5 2°40.782 -999 0.067551 0.339951 0.432289
2005-08-30 06:48:06 51°15.536 2°40.804 -999 0.067551 0.339951 0.432289
2005-08-30 06:49:06 51°15.546 2°40.808 -999 0.067551 0.339962 0.432289
2005-08-30 06:50:06 51°15.55 2°40.812 -999 0.067551 0.339973 0.432289
2005-08-30 06:51:06 51°15.549 2°40.818 -999 0.067551 0.339978 0.39858
2005-08-30 06:52:06 51°15.544 2°40.827 -999 0.067551 0.340005 0.432289
2005-08-30 06:53:06 51°15.538 2°40.829 -999 0.067551 0.340037 0.39858
2005-08-30 06:54:06 51°15.532 2°40.826 -999 0.067551 0.340075 0.432289
2005-08-30 06:55:06 51°15.526 2°40.821 -999 0.067551 0.340107 0.432289
2005-08-30 06:56:06 51°15.52 2°40.812 -999 0.067551 0.340145 0.39858
2005-08-30 06:57:06 51°15.513 2°40.801 -999 0.067551 0.340182 0.432289
2005-08-30 06:58:06 51°15.507 2°40.787 -999 0.067551 0.340225 0.432289
2005-08-30 06:59:06 51°15.5 2°40.772 -999 0.067551 0.340263 0.39858
2005-08-30 07:00:06 51°15.494 2°40.755 -999 0.067551 0.340311 0.39858
2005-08-30 07:01:06 51°15.49 2°40.735 -999 0.067551 0.340349 0.432289
2005-08-30 07:02:06 51°15.488 2°40.715 -999 0.067551 0.340386 0.39858
2005-08-30 07:03:06 51°15.486 2°40.696 -999 0.067551 0.340424 0.39858
2005-08-30 07:04:06 51°15.484 2°40.679 -999 0.067448 0.339928 0.39858
2005-08-30 07:05:06 51°15.481 2°40.663 -999 0.067448 0.33996 0.39858
2005-08-30 07:06:06 51°15.477 2°40.647 -999 0.067448 0.340003 0.39858
2005-08-30 07:07:06 51°15.474 2°40.631 -999 0.067448 0.340041 0.39858
2005-08-30 07:08:06 51°15.47 2°40.615 -999 0.067448 0.340073 0.39858
2005-08-30 07:09:06 51°15.465 2°40.601 -999 0.067448 0.340111 0.39858
2005-08-30 07:10:06 51°15.461 2°40.584 -999 0.067448 0.340143 0.39858
2005-08-30 07:11:06 51°15.457 2°40.568 -999 0.067448 0.340181 0.39858
2005-08-30 07:12:06 51°15.453 2°40.552 -999 0.067448 0.340219 0.39858
2005-08-30 07:13:06 51°15.45 2°40.538 -999 0.067448 0.340251 0.39858
2005-08-30 07:14:06 51°15.447 2°40.522 -999 0.067448 0.340289 0.39858
2005-08-30 07:15:06 51°15.444 2°40.507 -999 0.067448 0.340326 0.39858
2005-08-30 07:16:06 51°15.44 2°40.492 -999 0.067448 0.340364 0.39858
2005-08-30 07:17:06 51°15.438 2°40.474 -999 0.067448 0.340402 0.39858
2005-08-30 07:18:06 51°15.435 2°40.459 -999 0.067448 0.340439 0.39858
2005-08-30 07:19:06 51°15.432 2°40.443 -999 0.067448 0.340477 0.39858
2005-08-30 07:20:06 51°15.429 2°40.427 -999 0.067448 0.340515 0.39858
2005-08-30 07:21:06 51°15.425 2°40.412 -999 0.067448 0.340553 0.39858
2005-08-30 07:22:06 51°15.422 2°40.395 -999 0.067448 0.34059 0.39858
2005-08-30 07:23:06 51°15.408 2°40.377 -999 0.067448 0.340628 0.39858
2005-08-30 07:24:06 51°15.383 2°40.357 -999 0.067448 0.340666 0.39858
2005-08-30 07:25:06 51°15.362 2°40.343 -999 0.067448 0.340698 0.39858
2005-08-30 07:26:06 51°15.344 2°40.331 -999 0.067345 0.340202 0.39858
2005-08-30 07:27:06 51°15.328 2°40.32 -999 0.067345 0.340229 0.39858
2005-08-30 07:28:06 51°15.313 2°40.312 -999 0.067345 0.340261 0.39858
2005-08-30 07:29:06 51°15.279 2°40.332 -999 0.067345 0.340309 0.39858
2005-08-30 07:30:06 51°15.284 2°40.458 -999 0.067345 0.340347 0.39858
2005-08-30 07:31:06 51°15.354 2°40.576 -999 0.067345 0.340358 0.39858
2005-08-30 07:32:06 51°15.41 2°40.676 -999 0.067345 0.340412 0.39858
2005-08-30 07:33:06 51°15.445 2°40.751 -999 0.067345 0.340455 0.39858
2005-08-30 07:34:06 51°15.473 2°40.812 -999 0.067345 0.340493 0.39858
2005-08-30 07:35:06 51°15.486 2°40.844 -999 0.067345 0.340542 0.39858
2005-08-30 07:36:07 51°15.48 2°40.824 -999 0.067345 0.34059 0.39858
2005-08-30 07:37:06 51°15.471 2°40.799 -999 0.067345 0.340623 0.432289
2005-08-30 07:38:06 51°15.47 2°40.799 -999 0.067345 0.340655 0.39858
2005-08-30 07:39:06 51°15.474 2°40.804 -999 0.067345 0.340693 0.39858
2005-08-30 07:40:07 51°15.478 2°40.805 -999 0.067345 0.340726 0.39858
2005-08-30 07:41:06 51°15.481 2°40.805 -999 0.067345 0.340764 0.39858
2005-08-30 07:42:06 51°15.482 2°40.803 -999 0.067345 0.340796 0.39858
2005-08-30 07:43:06 51°15.482 2°40.8 -999 0.067345 0.340829 0.39858
2005-08-30 07:44:06 51°15.481 2°40.798 -999 0.067345 0.340861 0.39858
2005-08-30 07:45:06 51°15.48 2°40.795 -999 0.067345 0.340899 0.39858
2005-08-30 07:46:06 51°15.48 2°40.796 -999 0.067345 0.340931 0.39858
2005-08-30 07:47:06 51°15.48 2°40.797 -999 0.067345 0.340964 0.39858
2005-08-30 07:48:06 51°15.48 2°40.798 -999 0.067345 0.340997 0.39858
2005-08-30 07:49:06 51°15.481 2°40.798 -999 0.067345 0.341035 0.39858
2005-08-30 07:50:06 51°15.482 2°40.797 -999 0.067242 0.340531 0.39858
2005-08-30 07:51:07 51°15.482 2°40.797 -999 0.067242 0.340569 0.364871
2005-08-30 07:52:06 51°15.483 2°40.798 -999 0.067242 0.340601 0.364871
2005-08-30 07:53:06 51°15.484 2°40.799 -999 0.067242 0.340639 0.39858
2005-08-30 07:54:06 51°15.483 2°40.8 -999 0.067242 0.340672 0.39858
2005-08-30 07:55:06 51°15.483 2°40.8 -999 0.067242 0.34071 0.39858
2005-08-30 07:56:06 51°15.483 2°40.8 -999 0.067242 0.340748 0.39858
2005-08-30 07:57:06 51°15.483 2°40.8 -999 0.067242 0.34078 0.39858
2005-08-30 07:58:06 51°15.482 2°40.799 -999 0.067242 0.340813 0.39858
2005-08-30 07:59:06 51°15.48 2°40.8 -999 0.067242 0.34084 0.39858
2005-08-30 08:00:06 51°15.48 2°40.799 -999 0.067242 0.340873 0.364871
2005-08-30 08:01:06 51°15.479 2°40.8 -999 0.067242 0.340894 0.39858
2005-08-30 08:02:07 51°15.479 2°40.8 -999 0.067242 0.340922 0.39858
2005-08-30 08:03:07 51°15.479 2°40.801 -999 0.067242 0.340943 0.39858
2005-08-30 08:04:06 51°15.479 2°40.801 -999 0.067242 0.340965 0.364871
2005-08-30 08:05:06 51°15.479 2°40.8 -999 0.067242 0.340981 0.39858
2005-08-30 08:06:06 51°15.479 2°40.8 -999 0.067242 0.340998 0.39858
2005-08-30 08:07:06 51°15.48 2°40.799 -999 0.067242 0.341009 0.364871
2005-08-30 08:08:06 51°15.48 2°40.8 -999 0.067242 0.341025 0.39858
2005-08-30 08:09:06 51°15.48 2°40.801 -999 0.067242 0.341036 0.331161
2005-08-30 08:10:06 51°15.479 2°40.802 -999 0.067242 0.341047 0.39858
2005-08-30 08:11:06 51°15.479 2°40.803 -999 0.067242 0.341057 0.39858
2005-08-30 08:12:07 51°15.478 2°40.804 -999 0.067242 0.341068 0.39858
2005-08-30 08:13:06 51°15.478 2°40.805 -999 0.067242 0.34109 0.364871
2005-08-30 08:14:07 51°15.478 2°40.806 -999 0.067242 0.341106 0.364871
2005-08-30 08:15:06 51°15.478 2°40.808 -999 0.067242 0.341123 0.364871
2005-08-30 08:16:06 51°15.477 2°40.809 -999 0.067242 0.341144 0.364871
2005-08-30 08:17:06 51°15.478 2°40.808 -999 0.067242 0.341166 0.364871
2005-08-30 08:18:07 51°15.478 2°40.808 -999 0.067242 0.341193 0.364871
2005-08-30 08:19:06 51°15.479 2°40.807 -999 0.067242 0.341215 0.364871
2005-08-30 08:20:06 51°15.48 2°40.806 -999 0.067242 0.341242 0.39858
2005-08-30 08:21:06 51°15.481 2°40.806 -999 0.067242 0.341264 0.364871
2005-08-30 08:22:07 51°15.481 2°40.806 -999 0.067242 0.341297 0.364871
2005-08-30 08:23:06 51°15.481 2°40.806 -999 0.067242 0.341324 0.39858
2005-08-30 08:24:06 51°15.481 2°40.808 -999 0.067242 0.341346 0.364871
2005-08-30 08:25:06 51°15.481 2°40.809 -999 0.067242 0.341373 0.364871
2005-08-30 08:26:06 51°15.48 2°40.811 -999 0.067242 0.3414 0.364871
2005-08-30 08:27:07 51°15.48 2°40.812 -999 0.067242 0.341428 0.364871
2005-08-30 08:28:06 51°15.48 2°40.812 -999 0.067242 0.341455 0.364871
2005-08-30 08:29:06 51°15.481 2°40.811 -999 0.067242 0.341488 0.364871
2005-08-30 08:30:06 51°15.482 2°40.811 -999 0.067242 0.341509 0.364871
2005-08-30 08:31:06 51°15.483 2°40.81 -999 0.067242 0.341537 0.364871
2005-08-30 08:32:06 51°15.483 2°40.81 -999 0.067242 0.341564 0.364871
2005-08-30 08:33:07 51°15.484 2°40.81 -999 0.067242 0.341591 0.364871
2005-08-30 08:34:06 51°15.484 2°40.811 -999 0.067242 0.341619 0.364871
2005-08-30 08:35:06 51°15.483 2°40.811 -999 0.067242 0.34164 0.364871
2005-08-30 08:36:06 51°15.482 2°40.811 -999 0.067242 0.341662 0.364871
2005-08-30 08:37:07 51°15.481 2°40.812 -999 0.067242 0.34169 0.364871
2005-08-30 08:38:06 51°15.481 2°40.812 -999 0.067139 0.341179 0.364871
2005-08-30 08:39:06 51°15.481 2°40.812 -999 0.067139 0.341206 0.364871
2005-08-30 08:40:06 51°15.482 2°40.811 -999 0.067139 0.341233 0.364871
2005-08-30 08:41:07 51°15.48 2°40.811 -999 0.067139 0.341255 0.364871
2005-08-30 08:42:07 51°15.48 2°40.821 -999 0.067139 0.341283 0.364871
2005-08-30 08:43:06 51°15.482 2°40.83 -999 0.067139 0.341304 0.364871
2005-08-30 08:44:07 51°15.485 2°40.838 -999 0.067139 0.341332 0.364871
2005-08-30 08:45:06 51°15.49 2°40.845 -999 0.067139 0.341359 0.364871
2005-08-30 08:46:06 51°15.495 2°40.851 -999 0.067139 0.341381 0.364871
2005-08-30 08:47:06 51°15.499 2°40.858 -999 0.067139 0.341408 0.364871
2005-08-30 08:48:06 51°15.503 2°40.864 -999 0.067139 0.341436 0.364871
2005-08-30 08:49:06 51°15.507 2°40.87 -999 0.067139 0.341452 0.364871
2005-08-30 08:50:07 51°15.512 2°40.875 -999 0.067139 0.341479 0.364871
2005-08-30 08:51:07 51°15.531 2°40.899 -999 0.067139 0.341507 0.364871
2005-08-30 08:52:07 51°15.598 2°40.865 -999 0.067139 0.341545 0.364871
2005-08-30 08:53:06 51°15.61 2°40.68 -999 0.067139 0.341545 0.364871
2005-08-30 08:54:06 51°15.593 2°40.452 -999 0.067139 0.341583 0.364871
2005-08-30 08:55:07 51°15.513 2°40.26 -999 0.067139 0.341605 0.364871
2005-08-30 08:56:06 51°15.429 2°40.101 -999 0.067139 0.341638 0.364871
2005-08-30 08:57:06 51°15.399 2°39.993 -999 0.067139 0.34166 0.364871
2005-08-30 08:58:06 51°15.399 2°39.921 -999 0.067139 0.341682 0.364871
2005-08-30 08:59:06 51°15.418 2°39.861 -999 0.067036 0.341159 0.364871
2005-08-30 09:00:06 51°15.445 2°39.821 -999 0.067036 0.341181 0.364871
2005-08-30 09:01:06 51°15.47 2°39.796 -999 0.067037 0.341192 0.364871
2005-08-30 09:02:06 51°15.491 2°39.78 -999 0.067037 0.341219 0.364871
2005-08-30 09:03:06 51°15.53 2°39.774 -999 0.067037 0.341241 0.364871
2005-08-30 09:04:07 51°15.589 2°39.847 -999 0.067037 0.341269 0.364871
2005-08-30 09:05:06 51°15.642 2°39.945 -999 0.067037 0.341285 0.364871
2005-08-30 09:06:06 51°15.676 2°40.024 -999 0.067037 0.341301 0.364871
2005-08-30 09:07:07 51°15.704 2°40.094 -999 0.067037 0.341318 0.364871
2005-08-30 09:08:06 51°15.733 2°40.159 -999 0.067037 0.34134 0.364871
2005-08-30 09:09:07 51°15.764 2°40.224 -999 0.067037 0.341351 0.364871
2005-08-30 09:10:06 51°15.794 2°40.287 -999 0.067037 0.341373 0.364871
2005-08-30 09:11:06 51°15.822 2°40.351 -999 0.067037 0.341389 0.364871
2005-08-30 09:12:06 51°15.849 2°40.413 -999 0.067037 0.341405 0.364871
2005-08-30 09:13:06 51°15.876 2°40.474 -999 0.067037 0.341427 0.364871
2005-08-30 09:14:06 51°15.902 2°40.538 -999 0.067037 0.341444 0.364871
2005-08-30 09:15:07 51°15.927 2°40.602 -999 0.067037 0.341466 0.364871
2005-08-30 09:16:06 51°15.951 2°40.666 -999 0.067037 0.341482 0.364871
2005-08-30 09:17:06 51°15.977 2°40.73 -999 0.067037 0.341498 0.364871
2005-08-30 09:18:06 51°16.005 2°40.794 -999 0.067037 0.341515 0.364871
2005-08-30 09:19:06 51°16.032 2°40.856 -999 0.066934 0.340997 0.364871
2005-08-30 09:20:06 51°16.059 2°40.918 -999 0.066934 0.341014 0.364871
2005-08-30 09:21:06 51°16.086 2°40.982 -999 0.066934 0.341025 0.364871
2005-08-30 09:22:07 51°16.114 2°41.045 -999 0.066934 0.341041 0.331161
2005-08-30 09:23:06 51°16.14 2°41.107 -999 0.066934 0.341058 0.364871
2005-08-30 09:24:06 51°16.167 2°41.169 -999 0.066934 0.34108 0.364871
2005-08-30 09:25:06 51°16.195 2°41.232 -999 0.066934 0.341096 0.364871
2005-08-30 09:26:06 51°16.225 2°41.292 -999 0.066934 0.341107 0.364871
2005-08-30 09:27:07 51°16.258 2°41.35 -999 0.066934 0.341123 0.364871
2005-08-30 09:28:06 51°16.291 2°41.406 -999 0.066934 0.34114 0.364871
2005-08-30 09:29:07 51°16.322 2°41.465 -999 0.066934 0.341156 0.364871
2005-08-30 09:30:06 51°16.35 2°41.525 -999 0.066934 0.341178 0.364871
2005-08-30 09:31:06 51°16.379 2°41.588 -999 0.066934 0.341194 0.331161
2005-08-30 09:32:06 51°16.41 2°41.646 -999 0.066934 0.341211 0.364871
2005-08-30 09:33:06 51°16.447 2°41.691 -999 0.066934 0.341216 0.331161
2005-08-30 09:34:06 51°16.49 2°41.724 -999 0.066934 0.341233 0.331161
2005-08-30 09:35:07 51°16.535 2°41.753 -999 0.066934 0.341249 0.364871
2005-08-30 09:36:07 51°16.58 2°41.784 -999 0.066934 0.341266 0.364871
2005-08-30 09:37:06 51°16.623 2°41.818 -999 0.066831 0.340748 0.331161
2005-08-30 09:38:06 51°16.667 2°41.853 -999 0.066831 0.340764 0.331161
2005-08-30 09:39:07 51°16.711 2°41.888 -999 0.066831 0.340786 0.331161
2005-08-30 09:40:07 51°16.755 2°41.918 -999 0.066831 0.340803 0.331161
2005-08-30 09:41:06 51°16.801 2°41.941 -999 0.066831 0.340824 0.331161
2005-08-30 09:42:06 51°16.847 2°41.959 -999 0.066831 0.340846 0.364871
2005-08-30 09:43:07 51°16.891 2°41.977 -999 0.066831 0.340874 0.331161
2005-08-30 09:44:06 51°16.933 2°41.995 -999 0.066831 0.340896 0.364871
2005-08-30 09:45:06 51°16.977 2°42.017 -999 0.066831 0.340912 0.364871
2005-08-30 09:46:06 51°17.021 2°42.038 -999 0.066831 0.340929 0.331161
2005-08-30 09:47:06 51°17.068 2°42.064 -999 0.066831 0.340945 0.331161
2005-08-30 09:48:07 51°17.117 2°42.096 -999 0.066831 0.340967 0.331161
2005-08-30 09:49:07 51°17.155 2°42.126 -999 0.066831 0.340983 0.331161
2005-08-30 09:50:06 51°17.186 2°42.152 -999 0.066831 0.341 0.331161
2005-08-30 09:51:06 51°17.213 2°42.175 -999 0.066831 0.341016 0.331161
2005-08-30 09:52:07 51°17.237 2°42.194 -999 0.066831 0.341033 0.331161
2005-08-30 09:53:06 51°17.257 2°42.209 -999 0.066831 0.341055 0.331161
2005-08-30 09:54:06 51°17.282 2°42.217 -999 0.066831 0.341071 0.331161
2005-08-30 09:55:07 51°17.31 2°42.182 -999 0.066831 0.341093 0.331161
2005-08-30 09:56:06 51°17.287 2°42.122 -999 0.066831 0.341104 0.331161
2005-08-30 09:57:07 51°17.244 2°42.053 -999 0.066831 0.341126 0.331161
2005-08-30 09:58:07 51°17.22 2°41.999 -999 0.066831 0.341153 0.331161
2005-08-30 09:59:06 51°17.192 2°41.951 -999 0.066728 0.340618 0.331161
2005-08-30 10:00:07 51°17.163 2°41.9 -999 0.066831 0.341164 0.331161
2005-08-30 10:01:06 51°17.139 2°41.844 -999 0.066831 0.341175 0.331161
2005-08-30 10:02:07 51°17.118 2°41.788 -999 0.066728 0.340651 0.331161
2005-08-30 10:03:07 51°17.097 2°41.735 -999 0.066728 0.340657 0.331161
2005-08-30 10:04:07 51°17.075 2°41.683 -999 0.066728 0.340662 0.331161
2005-08-30 10:05:07 51°17.054 2°41.63 -999 0.066728 0.340668 0.331161
2005-08-30 10:06:07 51°17.031 2°41.576 -999 0.066728 0.340673 0.331161
2005-08-30 10:07:06 51°17.009 2°41.523 -999 0.066728 0.340679 0.331161
2005-08-30 10:08:06 51°16.986 2°41.469 -999 0.066728 0.340679 0.331161
2005-08-30 10:09:06 51°16.964 2°41.414 -999 0.066728 0.340679 0.331161
2005-08-30 10:10:06 51°16.94 2°41.36 -999 0.066728 0.340684 0.331161
2005-08-30 10:11:07 51°16.915 2°41.306 -999 0.066728 0.340684 0.331161
2005-08-30 10:12:06 51°16.893 2°41.252 -999 0.066728 0.34069 0.331161
2005-08-30 10:13:07 51°16.87 2°41.197 -999 0.066728 0.340695 0.331161
2005-08-30 10:14:06 51°16.848 2°41.142 -999 0.066728 0.340701 0.331161
2005-08-30 10:15:07 51°16.829 2°41.082 -999 0.066728 0.340695 0.331161
2005-08-30 10:16:06 51°16.81 2°41.024 -999 0.066728 0.340701 0.331161
2005-08-30 10:17:07 51°16.79 2°40.968 -999 0.066728 0.340706 0.331161
2005-08-30 10:18:07 51°16.767 2°40.916 -999 0.066728 0.340706 0.331161
2005-08-30 10:19:06 51°16.745 2°40.864 -999 0.066728 0.340712 0.331161
2005-08-30 10:20:06 51°16.722 2°40.812 -999 0.066728 0.340712 0.331161
2005-08-30 10:21:06 51°16.7 2°40.759 -999 0.066728 0.340717 0.331161
2005-08-30 10:22:07 51°16.679 2°40.703 -999 0.066728 0.340717 0.331161
2005-08-30 10:23:07 51°16.66 2°40.646 -999 0.066728 0.340717 0.331161
2005-08-30 10:24:06 51°16.641 2°40.588 -999 0.066728 0.340712 0.331161
2005-08-30 10:25:07 51°16.622 2°40.53 -999 0.066728 0.340717 0.331161
2005-08-30 10:26:06 51°16.602 2°40.475 -999 0.066728 0.340717 0.331161
2005-08-30 10:27:06 51°16.579 2°40.421 -999 0.066728 0.340717 0.331161
2005-08-30 10:28:07 51°16.557 2°40.366 -999 0.066728 0.340717 0.331161
2005-08-30 10:29:06 51°16.534 2°40.311 -999 0.066728 0.340723 0.331161
2005-08-30 10:30:06 51°16.512 2°40.257 -999 0.066728 0.340723 0.331161
2005-08-30 10:31:07 51°16.491 2°40.201 -999 0.066728 0.340717 0.331161
2005-08-30 10:32:07 51°16.472 2°40.147 -999 0.066728 0.340723 0.331161
2005-08-30 10:33:06 51°16.455 2°40.092 -999 0.066728 0.340717 0.331161
2005-08-30 10:34:06 51°16.444 2°40.032 -999 0.066728 0.340717 0.331161
2005-08-30 10:35:07 51°16.439 2°39.962 -999 0.066728 0.340717 0.297452
2005-08-30 10:36:06 51°16.443 2°39.906 -999 0.066728 0.340717 0.331161
2005-08-30 10:37:06 51°16.454 2°39.862 -999 0.066728 0.340717 0.331161
2005-08-30 10:38:07 51°16.469 2°39.829 -999 0.066728 0.340712 0.331161
2005-08-30 10:39:06 51°16.485 2°39.805 -999 0.066728 0.340706 0.331161
2005-08-30 10:40:07 51°16.486 2°39.731 -999 0.066728 0.340739 0.297452
2005-08-30 10:41:06 51°16.387 2°39.754 -999 0.066728 0.340706 0.297452
2005-08-30 10:42:07 51°16.242 2°39.907 -999 0.066728 0.340712 0.331161
2005-08-30 10:43:06 51°16.096 2°40.085 -999 0.066728 0.340728 0.297452
2005-08-30 10:44:07 51°15.943 2°40.265 -999 0.066728 0.340717 0.297452
2005-08-30 10:45:07 51°15.853 2°40.378 -999 0.066728 0.340717 0.331161
2005-08-30 10:46:06 51°15.809 2°40.443 -999 0.066728 0.340712 0.297452
2005-08-30 10:47:06 51°15.786 2°40.492 -999 0.066728 0.340717 0.331161
2005-08-30 10:48:07 51°15.774 2°40.533 -999 0.066728 0.340717 0.297452
2005-08-30 10:49:07 51°15.769 2°40.568 -999 0.066728 0.340723 0.297452
2005-08-30 10:50:06 51°15.768 2°40.597 -999 0.066728 0.340723 0.297452
2005-08-30 10:51:06 51°15.768 2°40.624 -999 0.066728 0.340728 0.331161
2005-08-30 10:52:06 51°15.77 2°40.646 -999 0.066728 0.340728 0.297452
2005-08-30 10:53:07 51°15.773 2°40.667 -999 0.066728 0.340728 0.297452
2005-08-30 10:54:07 51°15.777 2°40.684 -999 0.066728 0.340734 0.331161
2005-08-30 10:55:06 51°15.78 2°40.699 -999 0.066728 0.340728 0.297452
2005-08-30 10:56:07 51°15.784 2°40.713 -999 0.066728 0.340734 0.331161
2005-08-30 10:57:07 51°15.788 2°40.726 -999 0.066728 0.340734 0.297452
2005-08-30 10:58:06 51°15.791 2°40.736 -999 0.066728 0.340734 0.297452
2005-08-30 10:59:06 51°15.794 2°40.745 -999 0.066728 0.340739 0.297452
2005-08-30 11:00:07 51°15.796 2°40.774 -999 0.066728 0.340739 0.297452
2005-08-30 11:01:07 51°15.835 2°40.844 -999 0.066728 0.340755 0.297452
2005-08-30 11:02:07 51°15.915 2°40.829 -999 0.066728 0.340734 0.331161
2005-08-30 11:03:07 51°15.975 2°40.782 -999 0.066728 0.340745 0.297452
2005-08-30 11:04:06 51°16.01 2°40.716 -999 0.066728 0.340755 0.331161
2005-08-30 11:05:07 51°16.032 2°40.608 -999 0.066728 0.340761 0.297452
2005-08-30 11:06:07 51°16.041 2°40.568 -999 0.066728 0.340766 0.297452
2005-08-30 11:07:07 51°16.047 2°40.552 -999 0.066728 0.340755 0.297452
2005-08-30 11:08:07 51°16.053 2°40.538 -999 0.066728 0.340761 0.297452
2005-08-30 11:09:06 51°16.06 2°40.527 -999 0.066728 0.340755 0.297452
2005-08-30 11:10:07 51°16.068 2°40.517 -999 0.066728 0.340745 0.331161
2005-08-30 11:11:07 51°16.077 2°40.511 -999 0.066728 0.340739 0.297452
2005-08-30 11:12:07 51°16.088 2°40.483 -999 0.066728 0.340734 0.297452
2005-08-30 11:13:07 51°16.018 2°40.402 -999 0.066728 0.340723 0.297452
2005-08-30 11:14:07 51°15.878 2°40.467 -999 0.066728 0.340706 0.297452
2005-08-30 11:15:07 51°15.731 2°40.559 -999 0.066728 0.340684 0.297452
2005-08-30 11:16:07 51°15.611 2°40.693 -999 0.066728 0.340695 0.297452
2005-08-30 11:17:07 51°15.559 2°40.781 -999 0.066728 0.340684 0.297452
2005-08-30 11:18:07 51°15.548 2°40.819 -999 0.066728 0.340673 0.297452
2005-08-30 11:19:07 51°15.553 2°40.826 -999 0.066728 0.340662 0.297452
2005-08-30 11:20:06 51°15.557 2°40.831 -999 0.066728 0.340673 0.297452
2005-08-30 11:21:07 51°15.56 2°40.835 -999 0.066728 0.340662 0.297452
2005-08-30 11:22:06 51°15.564 2°40.837 -999 0.066831 0.341197 0.297452
2005-08-30 11:23:07 51°15.567 2°40.839 -999 0.066831 0.341197 0.297452
2005-08-30 11:24:07 51°15.569 2°40.841 -999 0.066831 0.341197 0.297452
2005-08-30 11:25:06 51°15.573 2°40.843 -999 0.066831 0.341197 0.297452
2005-08-30 11:26:07 51°15.576 2°40.845 -999 0.066831 0.341197 0.297452
2005-08-30 11:27:07 51°15.579 2°40.846 -999 0.066831 0.341197 0.297452
2005-08-30 11:28:07 51°15.582 2°40.847 -999 0.066831 0.341197 0.297452
2005-08-30 11:29:07 51°15.579 2°40.856 -999 0.066831 0.341186 0.297452
2005-08-30 11:30:07 51°15.546 2°40.859 -999 0.066831 0.341208 0.297452
2005-08-30 11:31:07 51°15.511 2°40.823 -999 0.066831 0.341208 0.297452
2005-08-30 11:32:07 51°15.493 2°40.78 -999 0.066831 0.341197 0.297452
2005-08-30 11:33:06 51°15.476 2°40.739 -999 0.066831 0.341192 0.297452
2005-08-30 11:34:07 51°15.457 2°40.702 -999 0.066831 0.341197 0.297452
2005-08-30 11:35:07 51°15.46 2°40.69 -999 0.066831 0.341203 0.297452
2005-08-30 11:36:07 51°15.467 2°40.704 -999 0.066831 0.341197 0.297452
2005-08-30 11:37:07 51°15.471 2°40.722 -999 0.066831 0.341192 0.297452
2005-08-30 11:38:06 51°15.476 2°40.735 -999 0.066831 0.341186 0.297452
2005-08-30 11:39:07 51°15.481 2°40.719 -999 0.066831 0.341186 0.297452
2005-08-30 11:40:06 51°15.485 2°40.719 -999 0.066831 0.341186 0.297452
2005-08-30 11:41:07 51°15.491 2°40.712 -999 0.066831 0.34117 0.297452
2005-08-30 11:42:07 51°15.492 2°40.72 -999 0.066831 0.34117 0.297452
2005-08-30 11:43:07 51°15.492 2°40.73 -999 0.066831 0.341148 0.263742
2005-08-30 11:44:06 51°15.491 2°40.734 -999 0.066831 0.341159 0.297452
2005-08-30 11:45:06 51°15.488 2°40.746 -999 0.066831 0.341148 0.297452
2005-08-30 11:46:07 51°15.485 2°40.763 -999 0.066831 0.341153 0.263742
2005-08-30 11:47:06 51°15.486 2°40.776 -999 0.066831 0.341142 0.297452
2005-08-30 11:48:06 51°15.488 2°40.784 -999 0.066831 0.341137 0.297452
2005-08-30 11:49:07 51°15.523 2°40.727 -999 0.066831 0.341131 0.297452
2005-08-30 11:50:07 51°15.671 2°40.791 -999 0.066831 0.341142 0.297452
2005-08-30 11:51:07 51°15.841 2°40.944 -999 0.066831 0.341131 0.297452
2005-08-30 11:52:07 51°16.02 2°41.096 -999 0.066831 0.341131 0.297452
2005-08-30 11:53:06 51°16.222 2°41.262 -999 0.066831 0.341131 0.297452
2005-08-30 11:54:06 51°16.449 2°41.275 -999 0.066831 0.341126 0.297452
2005-08-30 11:55:07 51°16.664 2°41.404 -999 0.066831 0.341159 0.263742
2005-08-30 11:56:07 51°16.866 2°41.58 -999 0.066831 0.341186 0.297452
2005-08-30 11:57:07 51°17.058 2°41.779 -999 0.066831 0.341203 0.263742
2005-08-30 11:58:06 51°17.249 2°41.977 -999 0.066831 0.34123 0.263742
2005-08-30 11:59:06 51°17.442 2°42.179 -999 0.066831 0.341269 0.297452
2005-08-30 12:00:07 51°17.636 2°42.386 -999 0.066831 0.341291 0.263742
2005-08-30 12:01:07 51°17.826 2°42.593 -999 0.066831 0.341324 0.297452
2005-08-30 12:02:07 51°18.012 2°42.806 -999 0.066831 0.341346 0.263742
2005-08-30 12:03:07 51°18.18 2°42.994 -999 0.066831 0.341379 0.263742
2005-08-30 12:04:07 51°18.277 2°43.086 -999 0.066831 0.341395 0.263742
2005-08-30 12:05:06 51°18.337 2°43.16 -999 0.066831 0.341423 0.297452
2005-08-30 12:06:07 51°18.386 2°43.215 -999 0.066831 0.34145 0.263742
2005-08-30 12:07:07 51°18.431 2°43.259 -999 0.066831 0.341461 0.263742
2005-08-30 12:08:06 51°18.46 2°43.297 -999 0.066831 0.341483 0.263742
2005-08-30 12:09:06 51°18.481 2°43.321 -999 0.066831 0.341494 0.263742
2005-08-30 12:10:07 51°18.493 2°43.327 -999 0.066831 0.341505 0.263742
2005-08-30 12:11:07 51°18.507 2°43.325 -999 0.066831 0.3415 0.263742
2005-08-30 12:12:07 51°18.526 2°43.301 -999 0.066831 0.341522 0.263742
2005-08-30 12:13:07 51°18.538 2°43.279 -999 0.066831 0.341527 0.263742
2005-08-30 12:14:06 51°18.549 2°43.259 -999 0.066831 0.341538 0.263742
2005-08-30 12:15:06 51°18.543 2°43.193 -999 0.066831 0.341577 0.263742
2005-08-30 12:16:07 51°18.542 2°43.182 -999 0.066831 0.341544 0.263742
2005-08-30 12:17:06 51°18.524 2°43.199 -999 0.066831 0.341566 0.263742
2005-08-30 12:18:07 51°18.51 2°43.25 -999 0.066831 0.341538 0.263742
2005-08-30 12:19:07 51°18.491 2°43.29 -999 0.066831 0.341549 0.263742
2005-08-30 12:20:06 51°18.475 2°43.315 -999 0.066831 0.341527 0.263742
2005-08-30 12:21:07 51°18.463 2°43.357 -999 0.066831 0.341516 0.263742
2005-08-30 12:22:07 51°18.459 2°43.397 -999 0.066831 0.341494 0.263742
2005-08-30 12:23:07 51°18.457 2°43.426 -999 0.066831 0.341489 0.263742
2005-08-30 12:24:07 51°18.456 2°43.437 -999 0.066831 0.341472 0.263742
2005-08-30 12:25:07 51°18.454 2°43.442 -999 0.066934 0.342002 0.263742
2005-08-30 12:26:06 51°18.452 2°43.444 -999 0.066934 0.341996 0.263742
2005-08-30 12:27:07 51°18.449 2°43.444 -999 0.066934 0.341991 0.263742
2005-08-30 12:28:07 51°18.446 2°43.442 -999 0.066934 0.341985 0.263742
2005-08-30 12:29:06 51°18.444 2°43.441 -999 0.066934 0.341974 0.263742
2005-08-30 12:30:07 51°18.443 2°43.438 -999 0.066934 0.341963 0.263742
2005-08-30 12:31:07 51°18.441 2°43.434 -999 0.066934 0.341963 0.263742
2005-08-30 12:32:07 51°18.439 2°43.43 -999 0.066934 0.341963 0.263742
2005-08-30 12:33:07 51°18.437 2°43.424 -999 0.066934 0.341958 0.263742
2005-08-30 12:34:07 51°18.435 2°43.418 -999 0.066934 0.341963 0.263742
2005-08-30 12:35:07 51°18.426 2°43.441 -999 0.066934 0.341969 0.230033
2005-08-30 12:36:07 51°18.438 2°43.506 -999 0.066934 0.341985 0.263742
2005-08-30 12:37:07 51°18.491 2°43.535 -999 0.066934 0.341969 0.230033
2005-08-30 12:38:07 51°18.535 2°43.499 -999 0.066934 0.341952 0.263742
2005-08-30 12:39:07 51°18.558 2°43.459 -999 0.066934 0.341947 0.263742
2005-08-30 12:40:07 51°18.576 2°43.427 -999 0.066934 0.341952 0.263742
2005-08-30 12:41:07 51°18.59 2°43.401 -999 0.066934 0.341947 0.230033
2005-08-30 12:42:07 51°18.602 2°43.381 -999 0.066934 0.341941 0.263742
2005-08-30 12:43:07 51°18.612 2°43.365 -999 0.066934 0.341941 0.230033
2005-08-30 12:44:07 51°18.621 2°43.353 -999 0.066934 0.341936 0.230033
2005-08-30 12:45:07 51°18.628 2°43.342 -999 0.066934 0.34193 0.230033
2005-08-30 12:46:07 51°18.634 2°43.332 -999 0.066934 0.341925 0.230033
2005-08-30 12:47:07 51°18.637 2°43.322 -999 0.066934 0.341919 0.230033
2005-08-30 12:48:07 51°18.645 2°43.308 -999 0.066934 0.341914 0.230033
2005-08-30 12:49:06 51°18.663 2°43.271 -999 0.066934 0.341903 0.230033
2005-08-30 12:50:07 51°18.664 2°43.215 -999 0.066934 0.341897 0.230033
2005-08-30 12:51:07 51°18.64 2°43.178 -999 0.066934 0.341886 0.230033
2005-08-30 12:52:07 51°18.614 2°43.168 -999 0.066934 0.341881 0.230033
2005-08-30 12:53:07 51°18.595 2°43.167 -999 0.066934 0.341881 0.230033
2005-08-30 12:54:07 51°18.581 2°43.168 -999 0.067037 0.342411 0.230033
2005-08-30 12:55:07 51°18.57 2°43.17 -999 0.067037 0.342405 0.230033
2005-08-30 12:56:06 51°18.561 2°43.173 -999 0.067037 0.342394 0.230033
2005-08-30 12:57:07 51°18.554 2°43.176 -999 0.067037 0.342389 0.230033
2005-08-30 12:58:06 51°18.548 2°43.177 -999 0.067037 0.342378 0.230033
2005-08-30 12:59:07 51°18.544 2°43.176 -999 0.067037 0.342372 0.230033
2005-08-30 13:00:07 51°18.54 2°43.175 -999 0.067037 0.342367 0.230033
2005-08-30 13:01:06 51°18.536 2°43.17 -999 0.067037 0.342356 0.230033
2005-08-30 13:02:07 51°18.532 2°43.166 -999 0.067037 0.342344 0.230033
2005-08-30 13:03:07 51°18.528 2°43.16 -999 0.067037 0.342339 0.230033
2005-08-30 13:04:06 51°18.524 2°43.154 -999 0.067037 0.342333 0.230033
2005-08-30 13:05:07 51°18.52 2°43.146 -999 0.067037 0.342322 0.230033
2005-08-30 13:06:07 51°18.515 2°43.138 -999 0.067037 0.342311 0.230033
2005-08-30 13:07:07 51°18.51 2°43.129 -999 0.067037 0.342306 0.230033
2005-08-30 13:08:07 51°18.506 2°43.119 -999 0.067139 0.342836 0.230033
2005-08-30 13:09:07 51°18.501 2°43.109 -999 0.067139 0.34283 0.230033
2005-08-30 13:10:07 51°18.497 2°43.098 -999 0.067139 0.342825 0.230033
2005-08-30 13:11:06 51°18.491 2°43.087 -999 0.067139 0.342813 0.230033
2005-08-30 13:12:07 51°18.486 2°43.076 -999 0.067139 0.342808 0.230033
2005-08-30 13:13:07 51°18.482 2°43.064 -999 0.067139 0.342797 0.230033
2005-08-30 13:14:07 51°18.478 2°43.053 -999 0.067139 0.342786 0.230033
2005-08-30 13:15:07 51°18.473 2°43.041 -999 0.067139 0.34278 0.230033
2005-08-30 13:16:07 51°18.468 2°43.028 -999 0.067139 0.34278 0.230033
2005-08-30 13:17:07 51°18.463 2°43.017 -999 0.067139 0.342775 0.230033
2005-08-30 13:18:07 51°18.441 2°43.032 -999 0.067139 0.342769 0.230033
2005-08-30 13:19:06 51°18.336 2°43.165 -999 0.067139 0.342764 0.230033
2005-08-30 13:20:07 51°18.172 2°43.355 -999 0.067139 0.342758 0.230033
2005-08-30 13:21:07 51°18.002 2°43.558 -999 0.067139 0.342747 0.230033
2005-08-30 13:22:07 51°17.832 2°43.763 -999 0.067139 0.342736 0.196324
2005-08-30 13:23:07 51°17.66 2°43.968 -999 0.067139 0.34272 0.230033
2005-08-30 13:24:07 51°17.488 2°44.178 -999 0.067139 0.342714 0.230033
2005-08-30 13:25:07 51°17.317 2°44.389 -999 0.067139 0.342692 0.230033
2005-08-30 13:26:07 51°17.15 2°44.603 -999 0.067139 0.34267 0.230033
2005-08-30 13:27:07 51°16.976 2°44.807 -999 0.067139 0.34267 0.230033
2005-08-30 13:28:07 51°16.803 2°45.008 -999 0.067139 0.342659 0.196324
2005-08-30 13:29:07 51°16.629 2°45.209 -999 0.067139 0.342648 0.230033
2005-08-30 13:30:07 51°16.457 2°45.415 -999 0.067242 0.343177 0.230033
2005-08-30 13:31:07 51°16.317 2°45.674 -999 0.067242 0.343161 0.230033
2005-08-30 13:32:07 51°16.188 2°45.941 -999 0.067242 0.343155 0.230033
2005-08-30 13:33:07 51°16.104 2°46.255 -999 0.067242 0.34315 0.196324
2005-08-30 13:34:07 51°16.036 2°46.58 -999 0.067242 0.343139 0.196324
2005-08-30 13:35:07 51°15.965 2°46.904 -999 0.067242 0.343128 0.196324
2005-08-30 13:36:07 51°15.891 2°47.226 -999 0.067242 0.343117 0.230033
2005-08-30 13:37:07 51°15.816 2°47.541 -999 0.067242 0.343106 0.230033
2005-08-30 13:38:07 51°15.741 2°47.856 -999 0.067242 0.343095 0.196324
2005-08-30 13:39:07 51°15.665 2°48.173 -999 0.067242 0.343084 0.196324
2005-08-30 13:40:07 51°15.589 2°48.484 -999 0.067242 0.343067 0.196324
2005-08-30 13:41:07 51°15.512 2°48.8 -999 0.067242 0.343062 0.230033
2005-08-30 13:42:07 51°15.432 2°49.116 -999 0.067242 0.343062 0.196324
2005-08-30 13:43:07 51°15.351 2°49.431 -999 0.067242 0.343051 0.230033
2005-08-30 13:44:07 51°15.272 2°49.741 -999 0.067242 0.343034 0.196324
2005-08-30 13:45:07 51°15.191 2°50.053 -999 0.067242 0.343023 0.196324
2005-08-30 13:46:07 51°15.11 2°50.363 -999 0.067242 0.343012 0.230033
2005-08-30 13:47:07 51°15.035 2°50.675 -999 0.067242 0.343001 0.230033
2005-08-30 13:48:07 51°14.963 2°50.988 -999 0.067242 0.34299 0.196324
2005-08-30 13:49:07 51°14.908 2°51.306 -999 0.067345 0.343524 0.196324
2005-08-30 13:50:07 51°14.855 2°51.629 -999 0.067345 0.343513 0.196324
2005-08-30 13:51:07 51°14.801 2°51.948 -999 0.067345 0.343497 0.196324
2005-08-30 13:52:07 51°14.756 2°52.268 -999 0.067345 0.343491 0.196324
2005-08-30 13:53:07 51°14.697 2°52.584 -999 0.067345 0.34348 0.196324
2005-08-30 13:54:07 51°14.645 2°52.907 -999 0.067345 0.343464 0.196324
2005-08-30 13:55:07 51°14.595 2°53.225 -999 0.067345 0.343453 0.196324
2005-08-30 13:56:07 51°14.545 2°53.537 -999 0.067345 0.343453 0.196324
2005-08-30 13:57:07 51°14.506 2°53.731 -999 0.067345 0.343447 0.196324
2005-08-30 13:58:07 51°14.494 2°53.836 -999 0.067345 0.343431 0.196324
2005-08-30 13:59:07 51°14.494 2°53.888 -999 0.067345 0.343414 0.196324
2005-08-30 14:00:07 51°14.492 2°53.916 -999 0.067345 0.343403 0.196324
2005-08-30 14:01:07 51°14.487 2°53.928 -999 0.067345 0.343398 0.196324
2005-08-30 14:02:07 51°14.481 2°53.931 -999 0.067345 0.343381 0.196324
2005-08-30 14:03:07 51°14.473 2°53.926 -999 0.067345 0.34337 0.196324
2005-08-30 14:04:07 51°14.463 2°53.918 -999 0.067345 0.343359 0.196324
2005-08-30 14:05:08 51°14.451 2°53.905 -999 0.067345 0.343342 0.196324
2005-08-30 14:06:07 51°14.439 2°53.892 -999 0.067345 0.343331 0.196324
2005-08-30 14:07:07 51°14.426 2°53.877 -999 0.067345 0.343315 0.196324
2005-08-30 14:08:07 51°14.413 2°53.862 -999 0.067345 0.343304 0.196324
2005-08-30 14:09:07 51°14.4 2°53.845 -999 0.067345 0.343293 0.196324
2005-08-30 14:10:07 51°14.384 2°53.845 -999 0.067345 0.343282 0.196324
2005-08-30 14:11:07 51°14.374 2°53.948 -999 0.067345 0.34326 0.196324
2005-08-30 14:12:07 51°14.367 2°54.099 -999 0.067345 0.343249 0.196324
2005-08-30 14:13:07 51°14.367 2°54.346 -999 0.067345 0.343243 0.196324
2005-08-30 14:14:07 51°14.375 2°54.626 -999 0.067345 0.343227 0.196324
2005-08-30 14:15:07 51°14.385 2°54.894 -999 0.067345 0.343216 0.196324
2005-08-30 14:16:07 51°14.335 2°55.132 -999 0.067345 0.343199 0.196324
2005-08-30 14:17:09 51°14.207 2°55.342 -999 0.067345 0.343188 0.196324
2005-08-30 14:18:08 51°14.077 2°55.45 -999 0.067345 0.343166 0.196324
2005-08-30 14:19:08 51°13.955 2°55.541 -999 0.067345 0.343155 0.196324
2005-08-30 14:20:08 51°13.819 2°55.643 -999 0.067345 0.343144 0.196324
2005-08-30 14:21:08 51°13.718 2°55.771 -999 0.067345 0.343128 0.196324
2005-08-30 14:22:08 51°13.662 2°55.891 -999 0.067345 0.343106 0.196324
2005-08-30 14:23:08 51°13.624 2°55.993 -999 0.067345 0.343095 0.196324
2005-08-30 14:24:09 51°13.608 2°56.062 -999 0.067345 0.343073 0.196324
2005-08-30 14:25:08 51°13.598 2°56.094 -999 0.067345 0.343067 0.196324
2005-08-30 14:26:08 51°13.597 2°56.094 -999 0.067345 0.343034 0.196324